Terminal Aerodrome Forecast
Issued by NWS Pocatello, ID

Home | Current Version | Previous Version | Text Only | Print | Product List | Glossary On
Versions: 1 2 3 4 5 6 7 8 9 10 11 12 13 14 15 16 17 18 19 20 21
995
FTUS45 KPIH 210233 AAB
TAFPIH
TAF AMD
KPIH 210233Z 2103/2124 15008KT P6SM VCSH SCT040 SCT070
     FM210400 15008KT P6SM VCSH SCT015 BKN040
     FM210500 VRB06KT 1SM -SN BR BKN015 OVC020
     FM211100 VRB06KT 3SM -SHSN BR BKN005 OVC015
     FM211800 24012KT P6SM VCSH BKN020=

USA.gov is the U.S. government's official web portal to all federal, state and local government web resources and services.